| time (UTC) | temp C | wind direction | speed KPH | gust KPH | rain 1hr cm | rain 24hr cm | rain mn cm | humidity % | barometer mb |
| 20260504050419 | 11 | 0.0 | 0.0 | 0.00 | 0.00 | 0.00 | 79 | 1015.8 | |
| 20260504045436 | 11 | 0.0 | 0.0 | 0.00 | 0.00 | 0.00 | 78 | 1015.7 | |
| 20260504044457 | 11 | 0.0 | 0.0 | 0.00 | 0.00 | 0.00 | 78 | 1015.6 | |
| 20260504043436 | 12 | 0.0 | 0.0 | 0.00 | 0.00 | 0.00 | 78 | 1015.5 | |
| 20260504042416 | 12 | 0.0 | 0.0 | 0.00 | 0.00 | 0.00 | 77 | 1015.4 | |
| 20260504041416 | 12 | 0.0 | 0.0 | 0.00 | 0.00 | 0.00 | 77 | 1015.2 | |
| 20260504040421 | 12 | 0.0 | 0.0 | 0.00 | 0.00 | 0.00 | 76 | 1015.2 | |
| 20260504035416 | 12 | 0.0 | 0.0 | 0.00 | 0.00 | 0.00 | 75 | 1015.1 | |
| 20260504034436 | 12 | 0.0 | 0.0 | 0.00 | 0.00 | 0.00 | 75 | 1015.0 | |
| 20260504033415 | 12 | 0.0 | 0.0 | 0.00 | 0.00 | 0.00 | 74 | 1014.9 | |
| 20260504032416 | 13 | 0.0 | 0.0 | 0.00 | 0.00 | 0.00 | 74 | 1014.7 | |
| 20260504031416 | 13 | 0.0 | 0.0 | 0.00 | 0.00 | 0.00 | 73 | 1014.5 | |
| 20260504030416 | 13 | 0.0 | 0.0 | 0.00 | 0.00 | 0.00 | 72 | 1014.4 | |
| 20260504025415 | 13 | 0.0 | 0.0 | 0.00 | 0.00 | 0.00 | 71 | 1014.2 | |
| 20260504024415 | 14 | 0.0 | 0.0 | 0.00 | 0.00 | 0.00 | 70 | 1014.2 | |
| 20260504023435 | 14 | 0.0 | 0.0 | 0.00 | 0.00 | 0.00 | 70 | 1014.2 | |
| 20260504022416 | 15 | 0.0 | 0.0 | 0.00 | 0.00 | 0.00 | 69 | 1014.1 | |
| 20260504021415 | 15 | 0.0 | 0.0 | 0.00 | 0.00 | 0.00 | 68 | 1014.0 | |
| 20260504020436 | 15 | 0.0 | 1.6 | 0.00 | 0.00 | 0.00 | 67 | 1014.0 | |
| 20260504015416 | 15 | 0.0 | 1.6 | 0.00 | 0.00 | 0.00 | 66 | 1013.9 | |
| 20260504014415 | 15 | 248 | 1.6 | 4.8 | 0.00 | 0.00 | 0.00 | 64 | 1013.8 |
| 20260504013416 | 16 | 0.0 | 4.8 | 0.00 | 0.00 | 0.00 | 62 | 1013.8 | |
| 20260504012416 | 16 | 0.0 | 1.6 | 0.00 | 0.00 | 0.00 | 61 | 1013.8 | |
| 20260504011436 | 16 | 0.0 | 0.0 | 0.00 | 0.00 | 0.00 | 61 | 1013.7 | |
| 20260504010522 | 16 | 0.0 | 0.0 | 0.00 | 0.00 | 0.00 | 60 | 1013.7 | |
| 20260504010344 | 16 | 0.0 | 0.0 | 0.00 | 0.00 | 0.00 | 60 | 1013.7 | |
| 20260504010221 | 16 | 0.0 | 0.0 | 0.00 | 0.00 | 0.00 | 59 | 1013.7 | |
| 20260504005117 | 16 | 0.0 | 1.6 | 0.00 | 0.00 | 0.00 | 59 | 1013.8 | |
| 20260504004117 | 16 | 0.0 | 0.0 | 0.00 | 0.00 | 0.00 | 59 | 1013.7 | |
| 20260504003139 | 17 | 0.0 | 1.6 | 0.00 | 0.00 | 0.00 | 56 | 1013.6 | |
| 20260504002158 | 17 | 0.0 | 1.6 | 0.00 | 0.00 | 0.00 | 58 | 1013.5 | |
| 20260504001117 | 17 | 0.0 | 0.0 | 0.00 | 0.00 | 0.00 | 58 | 1013.5 | |
| 20260504000138 | 17 | 0.0 | 3.2 | 0.00 | 0.00 | 0.00 | 59 | 1013.5 | |
| 20260503235117 | 16 | 0.0 | 1.6 | 0.00 | 0.00 | 0.00 | 58 | 1013.4 | |
| 20260503234118 | 16 | 0.0 | 1.6 | 0.00 | 0.00 | 0.00 | 56 | 1013.4 | |
| 20260503233138 | 17 | 0.0 | 1.6 | 0.00 | 0.00 | 0.00 | 56 | 1013.4 | |
| 20260503232138 | 17 | 0.0 | 1.6 | 0.00 | 0.00 | 0.00 | 58 | 1013.2 | |
| 20260503231118 | 16 | 0.0 | 1.6 | 0.00 | 0.00 | 0.00 | 58 | 1013.3 | |
| 20260503230150 | 16 | 0.0 | 0.0 | 0.00 | 0.00 | 0.00 | 58 | 1013.4 | |
| 20260503225118 | 17 | 0.0 | 0.0 | 0.00 | 0.00 | 0.00 | 59 | 1013.5 | |
| 20260503224158 | 16 | 0.0 | 0.0 | 0.00 | 0.00 | 0.00 | 60 | 1013.4 | |
| 20260503223138 | 16 | 0.0 | 0.0 | 0.00 | 0.00 | 0.00 | 61 | 1013.4 | |
| 20260503222118 | 17 | 0.0 | 1.6 | 0.00 | 0.00 | 0.00 | 62 | 1013.4 | |
| 20260503221118 | 17 | 0.0 | 0.0 | 0.00 | 0.00 | 0.00 | 62 | 1013.4 | |
| 20260503220117 | 17 | 0.0 | 0.0 | 0.00 | 0.00 | 0.00 | 64 | 1013.5 | |
| 20260503215117 | 17 | 0.0 | 0.0 | 0.00 | 0.00 | 0.00 | 65 | 1013.5 | |
| 20260503214118 | 17 | 0.0 | 1.6 | 0.00 | 0.00 | 0.00 | 62 | 1013.5 | |
| 20260503213117 | 18 | 0.0 | 0.0 | 0.00 | 0.00 | 0.00 | 62 | 1013.4 | |
| 20260503212138 | 18 | 0.0 | 0.0 | 0.00 | 0.00 | 0.00 | 63 | 1013.4 | |
| 20260503211117 | 17 | 0.0 | 0.0 | 0.00 | 0.00 | 0.00 | 63 | 1013.5 | |
| 20260503210138 | 17 | 0.0 | 0.0 | 0.00 | 0.00 | 0.00 | 63 | 1013.6 | |
| 20260503205118 | 17 | 0.0 | 0.0 | 0.00 | 0.00 | 0.00 | 64 | 1013.7 | |
| 20260503204118 | 16 | 0.0 | 0.0 | 0.00 | 0.00 | 0.00 | 65 | 1013.8 | |
| 20260503203118 | 17 | 0.0 | 1.6 | 0.00 | 0.00 | 0.00 | 63 | 1013.9 | |
| 20260503202117 | 16 | 0.0 | 0.0 | 0.00 | 0.00 | 0.00 | 66 | 1013.9 | |
| 20260503201138 | 16 | 0.0 | 0.0 | 0.00 | 0.00 | 0.00 | 65 | 1014.1 | |
| 20260503200138 | 16 | 0.0 | 0.0 | 0.00 | 0.00 | 0.00 | 65 | 1014.0 | |
| 20260503195117 | 16 | 0.0 | 0.0 | 0.00 | 0.00 | 0.00 | 65 | 1014.1 | |
| 20260503194138 | 16 | 0.0 | 0.0 | 0.00 | 0.00 | 0.00 | 66 | 1014.1 | |
| 20260503193117 | 16 | 0.0 | 0.0 | 0.00 | 0.00 | 0.00 | 67 | 1014.2 | |
| 20260503192117 | 16 | 0.0 | 0.0 | 0.00 | 0.00 | 0.00 | 68 | 1014.2 | |
| 20260503191118 | 16 | 0.0 | 0.0 | 0.00 | 0.00 | 0.00 | 69 | 1014.2 | |
| 20260503185118 | 16 | 0.0 | 0.0 | 0.00 | 0.00 | 0.00 | 69 | 1014.3 | |
| 20260503184117 | 15 | 0.0 | 0.0 | 0.00 | 0.00 | 0.00 | 73 | 1014.4 | |
| 20260503183137 | 15 | 0.0 | 0.0 | 0.00 | 0.00 | 0.00 | 72 | 1014.4 | |
| 20260503182158 | 15 | 0.0 | 0.0 | 0.00 | 0.00 | 0.00 | 72 | 1014.4 | |
| 20260503181118 | 15 | 0.0 | 0.0 | 0.00 | 0.00 | 0.00 | 72 | 1014.4 | |
| 20260503180118 | 15 | 0.0 | 0.0 | 0.00 | 0.00 | 0.00 | 73 | 1014.4 | |
| 20260503175117 | 15 | 0.0 | 0.0 | 0.00 | 0.00 | 0.00 | 72 | 1014.5 | |
| 20260503174118 | 15 | 0.0 | 0.0 | 0.00 | 0.00 | 0.00 | 74 | 1014.4 | |
| 20260503173117 | 14 | 0.0 | 0.0 | 0.00 | 0.00 | 0.00 | 75 | 1014.3 | |
| 20260503172117 | 14 | 0.0 | 0.0 | 0.00 | 0.00 | 0.00 | 76 | 1014.3 | |
| 20260503171117 | 13 | 0.0 | 0.0 | 0.00 | 0.00 | 0.00 | 76 | 1014.3 | |
| 20260503170118 | 13 | 0.0 | 0.0 | 0.00 | 0.00 | 0.00 | 78 | 1014.2 | |
| 20260503160116 | 12 | 0.0 | 0.0 | 0.00 | 0.00 | 0.00 | 83 | 1014.1 | |
| 20260503150117 | 12 | 0.0 | 0.0 | 0.00 | 0.00 | 0.00 | 83 | 1013.8 | |
| 20260503140116 | 12 | 0.0 | 0.0 | 0.00 | 0.00 | 0.00 | 87 | 1013.2 | |
| 20260503131116 | 12 | 0.0 | 0.0 | 0.00 | 0.00 | 0.00 | 87 | 1012.6 | |
| 20260503120116 | 12 | 0.0 | 0.0 | 0.00 | 0.00 | 0.00 | 86 | 1012.0 | |
| 20260503110116 | 12 | 0.0 | 0.0 | 0.00 | 0.00 | 0.00 | 84 | 1011.8 | |
| 20260503100117 | 12 | 0.0 | 0.0 | 0.00 | 0.00 | 0.00 | 82 | 1012.0 | |
| 20260503090117 | 12 | 0.0 | 0.0 | 0.00 | 0.00 | 0.00 | 82 | 1012.3 | |
| 20260503081116 | 12 | 0.0 | 0.0 | 0.00 | 0.00 | 0.00 | 82 | 1012.6 | |
| 20260503080157 | 12 | 0.0 | 0.0 | 0.00 | 0.00 | 0.00 | 81 | 1012.6 | |
| 20260503072116 | 12 | 0.0 | 0.0 | 0.00 | 0.00 | 0.00 | 81 | 1012.8 | |
| 20260503071117 | 12 | 0.0 | 0.0 | 0.00 | 0.00 | 0.00 | 81 | 1012.7 | |
| 20260503070232 | 12 | 0.0 | 0.0 | 0.00 | 0.00 | 0.00 | 81 | 1012.8 | |
| 20260503060116 | 12 | 0.0 | 0.0 | 0.00 | 0.00 | 0.00 | 80 | 1012.9 | |
| 20260503055116 | 12 | 0.0 | 0.0 | 0.00 | 0.00 | 0.00 | 80 | 1013.0 |